Omaha Offutt, NE

9:25 AM CDT on June 26, 2017 (GMT -0500)
Offutt Air Force Base

Weather History for KOFF - April, 2013

Change the Weather History Date:

Sunday, April 28, 2013

  Actual Average Record
Temperature  
Mean Temperature 60 °F -  
Max Temperature 81 °F 65 °F 84 °F (2004)
Min Temperature 40 °F 45 °F 33 °F (2008)
Degree Days  
Heating Degree Days 4    
Growing Degree Days 10 (Base 50)    
Moisture  
Dew Point 49 °F    
Average Humidity 69    
Maximum Humidity 100    
Minimum Humidity 31    
Precipitation  
Precipitation 0.00 in - - ()
Sea Level Pressure  
Sea Level Pressure 29.84 in    
Wind  
Wind Speed 8 mph (SSE)    
Max Wind Speed 15 mph    
Max Gust Speed 24 mph    
Visibility 9 miles    
Events      
Averages and records for this station are not official NWS values.
T = Trace of Precipitation, MM = Missing Value Source: NWS Daily Summary

Daily Weather History Graph

Daily Weather History Graph

Search for Another Location

Airport or City:

Trip Planner

Search our weather history database for the weather conditions in past years. The results will help you decide how hot, cold, wet, or windy it might be!

Date:

Astronomy

Apr. 28, 2013 Rise Set
Actual Time 6:25 AM CDT 8:17 PM CDT
Civil Twilight 5:55 AM CDT 8:47 PM CDT
Nautical Twilight 5:19 AM CDT 9:23 PM CDT
Astronomical Twilight 4:40 AM CDT 10:02 PM CDT
Moon 11:50 PM CDT (4/28) 8:41 AM CDT (4/28)
Length of Visible Light 14h 52m
Length of Day
13h 52m
Waning Gibbous, 88% of the Moon is Illuminated
Apr 28
Waning Gibbous
May 2
Last Quarter
May 9
New
May 17
First Quarter
May 24
Full

Hourly Weather History & Observations

Time (CDT) Temp. Windchill Dew Point Humidity Pressure Visibility Wind Dir Wind Speed Gust Speed Precip Events Conditions
12:58 AM 52.3 °F - 47.8 °F 85% 29.98 in 10.0 mi SSE 5.8 mph - N/A   Clear
1:58 AM 47.8 °F - 46.0 °F 93% 29.98 in 10.0 mi South 5.8 mph - N/A   Clear
2:58 AM 45.5 °F 43.2 °F 45.1 °F 99% 29.96 in 10.0 mi East 4.6 mph - N/A   Clear
3:58 AM 41.9 °F 37.5 °F 41.7 °F 99% 29.94 in 10.0 mi ESE 6.9 mph - N/A   Clear
4:58 AM 45.9 °F 42.9 °F 45.7 °F 99% 29.94 in 10.0 mi ESE 5.8 mph - N/A   Clear
5:18 AM 44.6 °F 41.4 °F 44.6 °F 100% 29.93 in 9.0 mi ESE 5.8 mph - N/A   Clear
5:58 AM 43.7 °F 40.3 °F 43.7 °F 100% 29.94 in 7.0 mi East 5.8 mph - N/A   Clear
6:10 AM 42.8 °F 41.1 °F 42.8 °F 100% 29.92 in 6.0 mi ESE 3.5 mph - N/A   Clear
6:58 AM 40.1 °F 36.1 °F 40.1 °F 100% 29.94 in 6.0 mi SE 5.8 mph - N/A   Clear
7:58 AM 47.8 °F - 47.8 °F 100% 29.94 in 7.0 mi SE 6.9 mph - N/A   Clear
8:58 AM 54.0 °F - 53.4 °F 98% 29.91 in 10.0 mi South 10.4 mph - N/A   Clear
9:58 AM 59.2 °F - 54.0 °F 83% 29.90 in 10.0 mi South 9.2 mph - N/A   Clear
10:58 AM 64.6 °F - 54.3 °F 69% 29.87 in 10.0 mi SSE 9.2 mph - N/A   Clear
11:58 AM 70.2 °F - 53.1 °F 55% 29.83 in 10.0 mi SSE 13.8 mph - N/A   Partly Cloudy
12:58 PM 73.9 °F - 50.5 °F 44% 29.81 in 10.0 mi South 12.7 mph 20.7 mph N/A   Scattered Clouds
1:58 PM 75.9 °F - 47.8 °F 37% 29.78 in 10.0 mi South 15.0 mph - N/A   Partly Cloudy
2:58 PM 79.7 °F - 47.1 °F 32% 29.76 in 10.0 mi South 12.7 mph 24.2 mph N/A   Clear
3:57 PM 80.6 °F - 48.2 °F 32% 29.74 in 10.0 mi South 12.7 mph - N/A   Clear
3:58 PM 80.4 °F - 47.7 °F 32% 29.75 in 10.0 mi South 12.7 mph - N/A   Clear
4:58 PM 81.0 °F - 47.7 °F 31% 29.72 in 10.0 mi South 13.8 mph - N/A   Partly Cloudy
5:58 PM 81.0 °F - 47.8 °F 31% 29.71 in 10.0 mi SSE 10.4 mph - N/A   Mostly Cloudy
6:58 PM 78.8 °F - 50.0 °F 36% 29.71 in 10.0 mi SSE 10.4 mph - N/A   Clear
7:58 PM 73.8 °F - 52.3 °F 47% 29.71 in 10.0 mi SSE 5.8 mph - N/A   Clear
8:58 PM 65.1 °F - 51.1 °F 60% 29.72 in 10.0 mi ESE 5.8 mph - N/A   Clear
9:58 PM 68.0 °F - 54.3 °F 62% 29.73 in 10.0 mi SSE 10.4 mph - N/A   Clear
10:58 PM 66.7 °F - 54.7 °F 65% 29.74 in 10.0 mi SSE 10.4 mph - N/A   Clear
11:58 PM 63.1 °F - 54.5 °F 73% 29.74 in 10.0 mi SSE 9.2 mph - N/A   Clear